When you browse on this site, cookies collect data to enhance your experience and personalize the content and advertising you see.
Visit our Privacy Policy to learn more. By continuing to use the site, you agree to this use of cookies and data.

Stündliche Wetter Bolshie Medvedki

Heute, 23 September, Mittwoch

Zeit Temperatur Niederschläge Wind Luftdruck Luftfeuchtigkeit
00:00 +12°C° 0 mm 4 m/S 743 mmHg 83%
01:00 +12°C° 0 mm 4 m/S 743 mmHg 85%
02:00 +11°C° 0 mm 3 m/S 743 mmHg 86%
03:00 +11°C° 0 mm 3 m/S 743 mmHg 86%
04:00 +10°C° 0 mm 3 m/S 743 mmHg 87%
05:00 +10°C° 0 mm 3 m/S 744 mmHg 88%
06:00 +10°C° 0 mm 3 m/S 744 mmHg 89%
07:00 +11°C° 0 mm 3 m/S 744 mmHg 83%
08:00 +13°C° 0 mm 3 m/S 744 mmHg 78%
09:00 +14°C° 0 mm 3 m/S 744 mmHg 72%
10:00 +17°C° 0 mm 3 m/S 744 mmHg 66%
11:00 +19°C° 0 mm 2 m/S 744 mmHg 60%
12:00 +20°C° 0 mm 2 m/S 744 mmHg 54%
13:00 +21°C° 0 mm 2 m/S 744 mmHg 52%
14:00 +22°C° 0 mm 3 m/S 744 mmHg 51%
15:00 +22°C° 0 mm 3 m/S 744 mmHg 49%
16:00 +21°C° 0 mm 2 m/S 744 mmHg 54%
17:00 +20°C° 0 mm 2 m/S 743 mmHg 59%
18:00 +19°C° 0 mm 1 m/S 743 mmHg 64%
19:00 +18°C° 0 mm 1 m/S 743 mmHg 66%
20:00 +18°C° 0 mm 1 m/S 744 mmHg 68%
21:00 +16°C° 0 mm 1 m/S 744 mmHg 70%
22:00 +15°C° 0 mm 1 m/S 744 mmHg 70%
23:00 +15°C° 0 mm 1 m/S 743 mmHg 71%

Morgen, 24 September, Donnerstag

Zeit Temperatur Niederschläge Wind Luftdruck Luftfeuchtigkeit
00:00 +14°C° 0 mm 1 m/S 743 mmHg 71%
01:00 +14°C° 0 mm 1 m/S 744 mmHg 72%
02:00 +14°C° 0 mm 1 m/S 744 mmHg 72%
03:00 +13°C° 0 mm 1 m/S 744 mmHg 73%
04:00 +13°C° 0 mm 1 m/S 744 mmHg 74%
05:00 +13°C° 0 mm 1 m/S 744 mmHg 75%
06:00 +13°C° 0 mm 1 m/S 744 mmHg 76%
07:00 +14°C° 0 mm 2 m/S 744 mmHg 71%
08:00 +15°C° 0 mm 2 m/S 744 mmHg 67%
09:00 +17°C° 0 mm 2 m/S 745 mmHg 63%
10:00 +18°C° 0 mm 2 m/S 745 mmHg 57%
11:00 +20°C° 0 mm 2 m/S 745 mmHg 51%
12:00 +21°C° 0 mm 2 m/S 745 mmHg 46%
13:00 +23°C° 0 mm 2 m/S 745 mmHg 44%
14:00 +23°C° 0 mm 2 m/S 745 mmHg 42%
15:00 +24°C° 0 mm 2 m/S 745 mmHg 40%
16:00 +23°C° 0 mm 2 m/S 744 mmHg 45%
17:00 +20°C° 0 mm 2 m/S 744 mmHg 50%
18:00 +19°C° 0 mm 2 m/S 744 mmHg 54%
19:00 +18°C° 0 mm 2 m/S 744 mmHg 56%
20:00 +17°C° 0 mm 2 m/S 744 mmHg 58%
21:00 +16°C° 0 mm 3 m/S 744 mmHg 61%
22:00 +16°C° 0 mm 2 m/S 744 mmHg 62%
23:00 +15°C° 0 mm 2 m/S 744 mmHg 63%

übermorgen, 25 September, Freitag

Zeit Temperatur Niederschläge Wind Luftdruck Luftfeuchtigkeit
00:00 +15°C° 0 mm 2 m/S 744 mmHg 64%
01:00 +14°C° 0 mm 2 m/S 744 mmHg 65%
02:00 +14°C° 0 mm 2 m/S 744 mmHg 66%
03:00 +14°C° 0 mm 2 m/S 744 mmHg 66%
04:00 +13°C° 0 mm 2 m/S 744 mmHg 67%
05:00 +13°C° 0 mm 2 m/S 744 mmHg 68%
06:00 +11°C° 0 mm 3 m/S 744 mmHg 69%
07:00 +13°C° 0 mm 3 m/S 744 mmHg 65%
08:00 +14°C° 0 mm 3 m/S 744 mmHg 61%
09:00 +16°C° 0 mm 3 m/S 744 mmHg 58%
10:00 +18°C° 0 mm 4 m/S 744 mmHg 54%
11:00 +20°C° 0 mm 4 m/S 744 mmHg 50%
12:00 +21°C° 0 mm 4 m/S 744 mmHg 46%
13:00 +22°C° 0 mm 4 m/S 744 mmHg 45%
14:00 +23°C° 0 mm 4 m/S 744 mmHg 43%
15:00 +23°C° 0 mm 4 m/S 744 mmHg 41%
16:00 +22°C° 0 mm 4 m/S 744 mmHg 46%
17:00 +20°C° 0 mm 4 m/S 744 mmHg 52%
18:00 +19°C° 0 mm 4 m/S 743 mmHg 57%
19:00 +18°C° 0 mm 4 m/S 743 mmHg 59%
20:00 +17°C° 0 mm 4 m/S 743 mmHg 61%
21:00 +15°C° 0 mm 4 m/S 744 mmHg 63%
22:00 +15°C° 0 mm 4 m/S 744 mmHg 64%
23:00 +14°C° 0 mm 4 m/S 743 mmHg 65%

26 September, Samstag

Zeit Temperatur Niederschläge Wind Luftdruck Luftfeuchtigkeit
00:00 +13°C° 0 mm 4 m/S 743 mmHg 65%
01:00 +13°C° 0 mm 4 m/S 743 mmHg 65%
02:00 +13°C° 0 mm 4 m/S 743 mmHg 66%
03:00 +12°C° 0 mm 4 m/S 743 mmHg 66%
04:00 +12°C° 0 mm 4 m/S 743 mmHg 65%
05:00 +11°C° 0 mm 4 m/S 744 mmHg 64%
06:00 +11°C° 0 mm 4 m/S 744 mmHg 63%
07:00 +12°C° 0 mm 4 m/S 744 mmHg 59%
08:00 +13°C° 0 mm 4 m/S 744 mmHg 55%
09:00 +14°C° 0 mm 5 m/S 744 mmHg 52%
10:00 +16°C° 0 mm 5 m/S 744 mmHg 48%
11:00 +17°C° 0 mm 5 m/S 744 mmHg 45%
12:00 +20°C° 0 mm 5 m/S 744 mmHg 41%
13:00 +21°C° 0 mm 5 m/S 744 mmHg 41%
14:00 +21°C° 0 mm 6 m/S 744 mmHg 41%
15:00 +22°C° 0 mm 6 m/S 744 mmHg 41%
16:00 +21°C° 0 mm 5 m/S 744 mmHg 45%
17:00 +19°C° 0 mm 4 m/S 744 mmHg 50%
18:00 +18°C° 0 mm 4 m/S 743 mmHg 54%
19:00 +18°C° 0 mm 4 m/S 744 mmHg 55%
20:00 +17°C° 0 mm 4 m/S 744 mmHg 56%
21:00 +15°C° 0 mm 5 m/S 744 mmHg 57%
22:00 +15°C° 0 mm 5 m/S 744 mmHg 56%
23:00 +15°C° 0 mm 5 m/S 744 mmHg 55%

27 September, Sonntag

Zeit Temperatur Niederschläge Wind Luftdruck Luftfeuchtigkeit
00:00 +15°C° 0 mm 5 m/S 744 mmHg 54%
01:00 +14°C° 0 mm 5 m/S 744 mmHg 53%
02:00 +14°C° 0 mm 5 m/S 744 mmHg 53%
03:00 +14°C° 0 mm 5 m/S 745 mmHg 52%
04:00 +13°C° 0 mm 5 m/S 745 mmHg 50%
05:00 +13°C° 0 mm 5 m/S 745 mmHg 49%
06:00 +12°C° 0 mm 5 m/S 745 mmHg 48%
07:00 +13°C° 0 mm 6 m/S 746 mmHg 47%
08:00 +14°C° 0 mm 6 m/S 746 mmHg 45%
09:00 +14°C° 0 mm 7 m/S 746 mmHg 44%
10:00 +15°C° 0 mm 7 m/S 746 mmHg 42%
11:00 +16°C° 0 mm 7 m/S 746 mmHg 39%
12:00 +18°C° 0 mm 8 m/S 746 mmHg 37%
13:00 +18°C° 0 mm 8 m/S 746 mmHg 36%
14:00 +18°C° 0 mm 8 m/S 746 mmHg 35%
15:00 +20°C° 0 mm 8 m/S 745 mmHg 34%
16:00 +18°C° 0 mm 7 m/S 745 mmHg 36%
17:00 +17°C° 0 mm 7 m/S 745 mmHg 38%
18:00 +16°C° 0 mm 6 m/S 745 mmHg 40%
19:00 +15°C° 0 mm 6 m/S 745 mmHg 39%
20:00 +15°C° 0 mm 7 m/S 745 mmHg 37%
21:00 +15°C° 0 mm 7 m/S 745 mmHg 36%
22:00 +14°C° 0 mm 7 m/S 745 mmHg 37%
23:00 +14°C° 0 mm 7 m/S 745 mmHg 37%

28 September, Montag

Zeit Temperatur Niederschläge Wind Luftdruck Luftfeuchtigkeit
00:00 +14°C° 0 mm 7 m/S 745 mmHg 37%
01:00 +14°C° 0 mm 7 m/S 745 mmHg 37%
02:00 +12°C° 0 mm 7 m/S 745 mmHg 37%
03:00 +12°C° 0 mm 7 m/S 745 mmHg 36%
04:00 +11°C° 0 mm 7 m/S 745 mmHg 38%
05:00 +11°C° 0 mm 8 m/S 745 mmHg 39%
06:00 +11°C° 0 mm 8 m/S 745 mmHg 41%
07:00 +11°C° 0 mm 8 m/S 745 mmHg 41%
08:00 +11°C° 0 mm 8 m/S 744 mmHg 42%
09:00 +12°C° 0 mm 9 m/S 744 mmHg 43%
10:00 +11°C° 0.3 mm 8 m/S 744 mmHg 48%
11:00 +11°C° 0.3 mm 8 m/S 744 mmHg 52%
12:00 +11°C° 0.3 mm 7 m/S 744 mmHg 56%
13:00 +11°C° 0.4 mm 6 m/S 744 mmHg 57%
14:00 +12°C° 0.4 mm 5 m/S 744 mmHg 57%
15:00 +12°C° 0.4 mm 4 m/S 744 mmHg 58%
16:00 +12°C° 0.1 mm 5 m/S 744 mmHg 64%
17:00 +10°C° 0.1 mm 6 m/S 744 mmHg 70%
18:00 +10°C° 0.1 mm 7 m/S 744 mmHg 76%
19:00 +10°C° 0.3 mm 7 m/S 744 mmHg 77%
20:00 +10°C° 0.3 mm 7 m/S 744 mmHg 77%
21:00 +10°C° 0.3 mm 7 m/S 744 mmHg 77%
22:00 +10°C° 0.3 mm 7 m/S 744 mmHg 79%
23:00 +10°C° 0.3 mm 7 m/S 743 mmHg 80%
Mehr zeigen